| time (UTC) | temp F | wind direction | speed MPH | gust MPH | rain 1hr in | rain 24hr in | rain mn in | humidity % | barometer mb |
| 20260507192703 | 67 | 77 | 5.0 | 13.0 | 0.00 | 0.41 | 0.00 | 28 | 998.1 |
| 20260507192018 | 66 | 81 | 6.0 | 16.0 | 0.00 | 0.43 | 0.00 | 32 | 998.2 |
| 20260507190904 | 67 | 73 | 6.0 | 13.0 | 0.00 | 0.47 | 0.00 | 30 | 998.4 |
| 20260507190004 | 66 | 74 | 5.0 | 13.0 | 0.00 | 0.48 | 0.00 | 29 | 998.6 |
| 20260507185403 | 66 | 81 | 7.0 | 15.0 | 0.00 | 0.49 | 0.00 | 33 | 998.8 |
| 20260507184504 | 66 | 73 | 4.0 | 14.0 | 0.00 | 0.50 | 0.00 | 31 | 999.1 |
| 20260507183603 | 65 | 76 | 6.0 | 14.0 | 0.00 | 0.51 | 0.00 | 34 | 999.3 |
| 20260507182918 | 65 | 72 | 5.0 | 18.0 | 0.00 | 0.52 | 0.00 | 32 | 999.5 |
| 20260507181803 | 64 | 75 | 6.0 | 16.0 | 0.00 | 0.52 | 0.00 | 31 | 999.8 |
| 20260507180904 | 64 | 76 | 6.0 | 13.0 | 0.00 | 0.52 | 0.00 | 32 | 1000.1 |
| 20260507180003 | 63 | 69 | 5.0 | 16.0 | 0.00 | 0.52 | 0.00 | 28 | 1000.3 |
| 20260507175403 | 63 | 73 | 6.0 | 15.0 | 0.00 | 0.52 | 0.00 | 31 | 1000.4 |
| 20260507174503 | 62 | 77 | 8.0 | 15.0 | 0.00 | 0.52 | 0.00 | 33 | 1000.5 |
| 20260507173818 | 62 | 81 | 10.0 | 15.0 | 0.00 | 0.52 | 0.00 | 37 | 1000.7 |
| 20260507172703 | 61 | 83 | 10.0 | 16.0 | 0.00 | 0.52 | 0.00 | 38 | 1001.0 |
| 20260507171803 | 60 | 83 | 11.0 | 16.0 | 0.00 | 0.52 | 0.00 | 42 | 1001.4 |
| 20260507170903 | 59 | 84 | 12.0 | 19.0 | 0.00 | 0.52 | 0.00 | 43 | 1001.7 |
| 20260507170004 | 59 | 83 | 11.0 | 19.0 | 0.00 | 0.52 | 0.00 | 42 | 1001.9 |
| 20260507165617 | 58 | 85 | 10.0 | 19.0 | 0.00 | 0.52 | 0.00 | 45 | 1002.1 |
| 20260507164503 | 57 | 87 | 10.0 | 16.0 | 0.00 | 0.52 | 0.00 | 47 | 1002.3 |
| 20260507163603 | 57 | 88 | 11.0 | 17.0 | 0.00 | 0.52 | 0.00 | 44 | 1002.5 |
| 20260507162703 | 56 | 84 | 10.0 | 15.0 | 0.00 | 0.52 | 0.00 | 46 | 1002.7 |
| 20260507161803 | 56 | 87 | 8.0 | 15.0 | 0.00 | 0.52 | 0.00 | 45 | 1002.7 |
| 20260507160903 | 55 | 85 | 9.0 | 16.0 | 0.00 | 0.52 | 0.00 | 47 | 1003.0 |
| 20260507160003 | 54 | 80 | 11.0 | 18.0 | 0.00 | 0.52 | 0.00 | 45 | 1003.2 |
| 20260507155403 | 54 | 80 | 12.0 | 18.0 | 0.00 | 0.52 | 0.00 | 47 | 1003.2 |
| 20260507154504 | 53 | 82 | 14.0 | 20.0 | 0.00 | 0.52 | 0.00 | 46 | 1003.3 |
| 20260507153603 | 52 | 85 | 13.0 | 20.0 | 0.00 | 0.52 | 0.00 | 51 | 1003.4 |
| 20260507152703 | 51 | 23 | 13.0 | 21.0 | 0.00 | 0.53 | 0.00 | 48 | 1003.5 |
| 20260507151803 | 53 | 286 | 10.0 | 20.0 | 0.00 | 0.53 | 0.00 | 47 | 1003.8 |
| 20260507151118 | 52 | 286 | 10.0 | 19.0 | 0.00 | 0.53 | 0.00 | 45 | 1003.9 |
| 20260507150003 | 51 | 284 | 8.0 | 17.0 | 0.00 | 0.53 | 0.00 | 47 | 1004.2 |
| 20260507145403 | 50 | 284 | 9.0 | 18.0 | 0.00 | 0.53 | 0.00 | 48 | 1004.1 |
| 20260507144503 | 49 | 286 | 10.0 | 23.0 | 0.00 | 0.53 | 0.00 | 50 | 1004.3 |
| 20260507143603 | 48 | 280 | 10.0 | 24.0 | 0.00 | 0.53 | 0.00 | 51 | 1004.2 |
| 20260507142704 | 48 | 278 | 9.0 | 22.0 | 0.00 | 0.53 | 0.00 | 50 | 1004.2 |
| 20260507141803 | 47 | 284 | 8.0 | 19.0 | 0.00 | 0.53 | 0.00 | 51 | 1004.3 |
| 20260507140903 | 47 | 283 | 9.0 | 18.0 | 0.00 | 0.53 | 0.00 | 51 | 1004.5 |
| 20260507140004 | 46 | 285 | 7.0 | 17.0 | 0.00 | 0.53 | 0.00 | 52 | 1004.5 |
| 20260507135618 | 46 | 287 | 7.0 | 15.0 | 0.00 | 0.53 | 0.00 | 54 | 1004.6 |
| 20260507134718 | 45 | 283 | 7.0 | 15.0 | 0.00 | 0.53 | 0.00 | 53 | 1004.7 |
| 20260507133604 | 44 | 291 | 5.0 | 12.0 | 0.00 | 0.53 | 0.00 | 56 | 1004.9 |
| 20260507132703 | 43 | 283 | 7.0 | 14.0 | 0.00 | 0.53 | 0.00 | 56 | 1005.0 |
| 20260507131803 | 42 | 289 | 5.0 | 14.0 | 0.00 | 0.53 | 0.00 | 58 | 1004.9 |
| 20260507131117 | 41 | 279 | 7.0 | 15.0 | 0.00 | 0.53 | 0.00 | 59 | 1004.8 |
| 20260507130004 | 40 | 286 | 8.0 | 16.0 | 0.00 | 0.53 | 0.00 | 60 | 1004.9 |
| 20260507125403 | 40 | 289 | 8.0 | 16.0 | 0.00 | 0.53 | 0.00 | 61 | 1005.1 |
| 20260507124503 | 39 | 294 | 7.0 | 16.0 | 0.00 | 0.53 | 0.00 | 62 | 1005.1 |
| 20260507123603 | 39 | 313 | 8.0 | 16.0 | 0.00 | 0.53 | 0.00 | 63 | 1005.3 |
| 20260507122705 | 38 | 319 | 7.0 | 11.0 | 0.00 | 0.53 | 0.00 | 64 | 1005.6 |
| 20260507122017 | 38 | 324 | 7.0 | 12.0 | 0.00 | 0.53 | 0.00 | 65 | 1005.3 |
| 20260507120903 | 38 | 324 | 7.0 | 12.0 | 0.00 | 0.54 | 0.00 | 66 | 1005.3 |
| 20260507120004 | 38 | 322 | 7.0 | 13.0 | 0.00 | 0.54 | 0.00 | 65 | 1005.3 |
| 20260507115403 | 38 | 314 | 9.0 | 15.0 | 0.00 | 0.54 | 0.00 | 65 | 1005.3 |
| 20260507114503 | 38 | 305 | 9.0 | 16.0 | 0.00 | 0.54 | 0.00 | 65 | 1005.2 |
| 20260507113603 | 38 | 309 | 10.0 | 19.0 | 0.00 | 0.54 | 0.00 | 65 | 1005.2 |
| 20260507112703 | 38 | 301 | 10.0 | 18.0 | 0.00 | 0.55 | 0.00 | 66 | 1005.2 |
| 20260507111803 | 38 | 310 | 10.0 | 17.0 | 0.00 | 0.55 | 0.00 | 65 | 1005.2 |
| 20260507110903 | 38 | 311 | 11.0 | 19.0 | 0.00 | 0.56 | 0.00 | 66 | 1005.2 |
| 20260507110005 | 38 | 304 | 11.0 | 17.0 | 0.00 | 0.56 | 0.00 | 68 | 1005.2 |
| 20260507105403 | 38 | 301 | 12.0 | 18.0 | 0.00 | 0.56 | 0.00 | 69 | 1005.2 |
| 20260507104503 | 38 | 303 | 10.0 | 22.0 | 0.00 | 0.56 | 0.00 | 69 | 1005.2 |
| 20260507103603 | 38 | 304 | 9.0 | 17.0 | 0.00 | 0.56 | 0.00 | 70 | 1005.2 |
| 20260507102917 | 38 | 307 | 7.0 | 17.0 | 0.00 | 0.56 | 0.00 | 70 | 1005.2 |
| 20260507102016 | 38 | 307 | 9.0 | 16.0 | 0.00 | 0.56 | 0.00 | 70 | 1005.5 |
| 20260507100904 | 38 | 304 | 8.0 | 15.0 | 0.00 | 0.56 | 0.00 | 70 | 1005.4 |
| 20260507100003 | 38 | 307 | 10.0 | 15.0 | 0.00 | 0.56 | 0.00 | 70 | 1005.5 |
| 20260507095617 | 38 | 306 | 9.0 | 15.0 | 0.00 | 0.56 | 0.00 | 71 | 1005.5 |
| 20260507094503 | 38 | 308 | 6.0 | 14.0 | 0.00 | 0.56 | 0.00 | 70 | 1005.2 |
| 20260507093817 | 38 | 312 | 6.0 | 11.0 | 0.00 | 0.56 | 0.00 | 70 | 1005.4 |
| 20260507092703 | 38 | 310 | 6.0 | 14.0 | 0.00 | 0.56 | 0.00 | 69 | 1005.5 |
| 20260507091803 | 39 | 297 | 6.0 | 16.0 | 0.00 | 0.56 | 0.00 | 69 | 1005.6 |
| 20260507091117 | 39 | 294 | 7.0 | 16.0 | 0.00 | 0.56 | 0.00 | 68 | 1005.4 |
| 20260507090004 | 39 | 294 | 8.0 | 16.0 | 0.00 | 0.56 | 0.00 | 68 | 1005.6 |
| 20260507085404 | 39 | 292 | 7.0 | 16.0 | 0.00 | 0.56 | 0.00 | 68 | 1005.4 |
| 20260507084503 | 39 | 287 | 8.0 | 18.0 | 0.00 | 0.56 | 0.00 | 68 | 1005.3 |
| 20260507083603 | 39 | 283 | 7.0 | 15.0 | 0.00 | 0.56 | 0.00 | 68 | 1005.3 |
| 20260507082703 | 38 | 287 | 5.0 | 14.0 | 0.00 | 0.56 | 0.00 | 69 | 1005.1 |
| 20260507081803 | 38 | 294 | 5.0 | 12.0 | 0.00 | 0.56 | 0.00 | 72 | 1005.1 |
| 20260507080903 | 38 | 298 | 4.0 | 10.0 | 0.00 | 0.56 | 0.00 | 73 | 1005.1 |
| 20260507080004 | 38 | 299 | 3.0 | 8.0 | 0.00 | 0.56 | 0.00 | 72 | 1005.2 |
| 20260507075403 | 38 | 301 | 3.0 | 8.0 | 0.00 | 0.56 | 0.00 | 72 | 1005.3 |
| 20260507074503 | 39 | 285 | 3.0 | 12.0 | 0.00 | 0.56 | 0.00 | 72 | 1005.3 |
| 20260507073604 | 38 | 292 | 3.0 | 10.0 | 0.00 | 0.56 | 0.00 | 72 | 1005.3 |
| 20260507072703 | 38 | 301 | 4.0 | 11.0 | 0.00 | 0.56 | 0.00 | 72 | 1005.3 |
| 20260507071803 | 39 | 309 | 6.0 | 14.0 | 0.00 | 0.57 | 0.00 | 73 | 1005.3 |
| 20260507070903 | 39 | 310 | 9.0 | 17.0 | 0.00 | 0.57 | 0.00 | 73 | 1005.4 |
| 20260507070007 | 38 | 308 | 9.0 | 16.0 | 0.00 | 0.57 | 0.00 | 74 | 1005.4 |
| 20260507065403 | 39 | 310 | 9.0 | 16.0 | 0.00 | 0.57 | 0.00 | 74 | 1005.4 |
| 20260507064504 | 38 | 309 | 9.0 | 14.0 | 0.00 | 0.57 | 0.00 | 75 | 1005.5 |
| 20260507063603 | 38 | 308 | 9.0 | 16.0 | 0.00 | 0.57 | 0.00 | 76 | 1005.5 |
| 20260507062703 | 37 | 317 | 7.0 | 13.0 | 0.00 | 0.57 | 0.00 | 80 | 1005.5 |
| 20260507061803 | 35 | 322 | 4.0 | 12.0 | 0.00 | 0.57 | 0.00 | 83 | 1005.5 |
| 20260507060903 | 35 | 324 | 5.0 | 10.0 | 0.00 | 0.57 | 0.00 | 84 | 1005.4 |
| 20260507060219 | 34 | 321 | 3.0 | 9.0 | 0.00 | 0.57 | 0.00 | 85 | 1005.4 |
| 20260507055403 | 34 | 326 | 3.0 | 5.0 | 0.00 | 0.58 | 0.57 | 85 | 1005.3 |
| 20260507054503 | 35 | 331 | 3.0 | 6.0 | 0.00 | 0.58 | 0.57 | 85 | 1005.2 |
| 20260507053818 | 35 | 328 | 4.0 | 6.0 | 0.00 | 0.58 | 0.57 | 85 | 1005.2 |
| 20260507052703 | 35 | 325 | 4.0 | 9.0 | 0.00 | 0.58 | 0.57 | 86 | 1005.2 |
| 20260507052016 | 34 | 327 | 4.0 | 8.0 | 0.00 | 0.58 | 0.57 | 87 | 1005.2 |
| 20260507051118 | 34 | 313 | 3.0 | 8.0 | 0.00 | 0.58 | 0.57 | 87 | 1005.2 |
| 20260507050217 | 34 | 325 | 2.0 | 5.0 | 0.00 | 0.58 | 0.57 | 87 | 1005.2 |
| 20260507045617 | 34 | 327 | 2.0 | 5.0 | 0.00 | 0.59 | 0.57 | 87 | 1005.3 |
| 20260507044718 | 34 | 326 | 2.0 | 5.0 | 0.00 | 0.59 | 0.57 | 86 | 1005.2 |
| 20260507043817 | 35 | 316 | 3.0 | 4.0 | 0.00 | 0.59 | 0.57 | 86 | 1005.2 |
| 20260507042703 | 35 | 315 | 3.0 | 4.0 | 0.00 | 0.59 | 0.57 | 86 | 1005.1 |
| 20260507041803 | 35 | 315 | 3.0 | 5.0 | 0.00 | 0.59 | 0.57 | 87 | 1005.1 |
| 20260507040904 | 35 | 305 | 4.0 | 8.0 | 0.00 | 0.59 | 0.57 | 87 | 1005.0 |
| 20260507040217 | 35 | 304 | 3.0 | 8.0 | 0.00 | 0.59 | 0.57 | 88 | 1005.0 |
| 20260507035403 | 34 | 315 | 2.0 | 7.0 | 0.00 | 0.60 | 0.57 | 87 | 1005.0 |
| 20260507034503 | 34 | 333 | 1.0 | 4.0 | 0.00 | 0.60 | 0.57 | 87 | 1005.0 |
| 20260507033603 | 35 | 335 | 1.0 | 4.0 | 0.00 | 0.60 | 0.57 | 86 | 1005.0 |
| 20260507032916 | 35 | 333 | 0.0 | 2.0 | 0.00 | 0.60 | 0.57 | 85 | 1004.9 |
| 20260507031803 | 35 | 333 | 0.0 | 2.0 | 0.00 | 0.60 | 0.57 | 84 | 1004.8 |
| 20260507030903 | 36 | 333 | 0.0 | 2.0 | 0.00 | 0.60 | 0.57 | 83 | 1004.7 |
| 20260507030005 | 36 | 333 | 1.0 | 3.0 | 0.00 | 0.61 | 0.57 | 83 | 1004.6 |
| 20260507025403 | 37 | 333 | 2.0 | 4.0 | 0.00 | 0.61 | 0.57 | 82 | 1004.6 |
| 20260507024503 | 37 | 333 | 2.0 | 4.0 | 0.00 | 0.61 | 0.57 | 81 | 1004.5 |
| 20260507023603 | 38 | 334 | 1.0 | 3.0 | 0.00 | 0.61 | 0.57 | 80 | 1004.5 |
| 20260507022703 | 38 | 82 | 0.0 | 1.0 | 0.00 | 0.61 | 0.57 | 81 | 1004.4 |
| 20260507021803 | 38 | 75 | 0.0 | 2.0 | 0.00 | 0.61 | 0.57 | 79 | 1004.3 |
| 20260507020903 | 39 | 74 | 0.0 | 1.0 | 0.00 | 0.61 | 0.57 | 77 | 1004.4 |
| 20260507020004 | 41 | 71 | 0.0 | 4.0 | 0.00 | 0.61 | 0.57 | 73 | 1004.4 |
| 20260507015404 | 42 | 0 | 0.0 | 0.0 | 0.00 | 0.61 | 0.57 | 69 | 1004.4 |
| 20260507014503 | 44 | 0 | 0.0 | 0.0 | 0.00 | 0.61 | 0.57 | 63 | 1004.5 |
| 20260507013818 | 46 | 0 | 0.0 | 0.0 | 0.00 | 0.61 | 0.57 | 62 | 1004.5 |
| 20260507012703 | 47 | 71 | 0.0 | 1.0 | 0.00 | 0.61 | 0.57 | 61 | 1004.6 |
| 20260507012017 | 48 | 119 | 0.0 | 1.0 | 0.00 | 0.61 | 0.57 | 60 | 1004.5 |
| 20260507010903 | 47 | 121 | 0.0 | 1.0 | 0.00 | 0.62 | 0.57 | 63 | 1004.5 |
| 20260507010003 | 47 | 94 | 0.0 | 2.0 | 0.00 | 0.62 | 0.57 | 64 | 1004.4 |
| 20260507005617 | 46 | 94 | 0.0 | 2.0 | 0.00 | 0.62 | 0.57 | 63 | 1004.4 |
| 20260507004503 | 46 | 91 | 0.0 | 2.0 | 0.00 | 0.62 | 0.57 | 63 | 1004.6 |
| 20260507003603 | 46 | 0 | 0.0 | 0.0 | 0.00 | 0.62 | 0.57 | 63 | 1004.6 |
| 20260507002703 | 43 | 62 | 0.0 | 3.0 | 0.00 | 0.62 | 0.57 | 69 | 1004.7 |
| 20260507001803 | 42 | 59 | 1.0 | 4.0 | 0.00 | 0.62 | 0.57 | 72 | 1004.6 |
| 20260507001118 | 42 | 59 | 3.0 | 5.0 | 0.00 | 0.62 | 0.57 | 73 | 1004.7 |
| 20260507000003 | 42 | 91 | 2.0 | 4.0 | 0.00 | 0.62 | 0.57 | 71 | 1004.7 |
| 20260506235404 | 43 | 84 | 3.0 | 8.0 | 0.00 | 0.62 | 0.57 | 71 | 1004.6 |
| 20260506234718 | 43 | 84 | 4.0 | 7.0 | 0.00 | 0.62 | 0.57 | 71 | 1004.6 |
| 20260506233818 | 42 | 91 | 3.0 | 6.0 | 0.00 | 0.63 | 0.57 | 73 | 1004.5 |
| 20260506232917 | 42 | 85 | 3.0 | 7.0 | 0.01 | 0.63 | 0.57 | 72 | 1004.6 |
| 20260506231803 | 43 | 91 | 3.0 | 8.0 | 0.02 | 0.63 | 0.57 | 69 | 1004.6 |
| 20260506230903 | 43 | 53 | 4.0 | 9.0 | 0.03 | 0.64 | 0.57 | 72 | 1004.4 |
| 20260506230003 | 42 | 349 | 4.0 | 6.0 | 0.04 | 0.64 | 0.57 | 72 | 1004.4 |
| 20260506225616 | 42 | 10 | 3.0 | 8.0 | 0.04 | 0.64 | 0.57 | 74 | 1004.4 |
| 20260506224503 | 42 | 106 | 0.0 | 1.0 | 0.06 | 0.65 | 0.57 | 73 | 1004.3 |
| 20260506223603 | 44 | 226 | 1.0 | 3.0 | 0.09 | 0.65 | 0.57 | 68 | 1004.4 |
| 20260506222704 | 44 | 219 | 1.0 | 5.0 | 0.11 | 0.64 | 0.56 | 72 | 1004.5 |
| 20260506221803 | 43 | 191 | 2.0 | 5.0 | 0.12 | 0.63 | 0.55 | 71 | 1004.5 |
| 20260506220903 | 44 | 181 | 1.0 | 5.0 | 0.14 | 0.62 | 0.54 | 71 | 1004.4 |
| 20260506220216 | 44 | 349 | 0.0 | 3.0 | 0.16 | 0.61 | 0.53 | 64 | 1004.5 |
| 20260506215403 | 44 | 240 | 0.0 | 2.0 | 0.17 | 0.60 | 0.52 | 67 | 1004.7 |
| 20260506214503 | 45 | 229 | 0.0 | 4.0 | 0.17 | 0.59 | 0.51 | 70 | 1004.8 |
| 20260506213603 | 43 | 218 | 1.0 | 5.0 | 0.16 | 0.57 | 0.48 | 72 | 1005.1 |
| 20260506212704 | 42 | 223 | 1.0 | 4.0 | 0.15 | 0.54 | 0.45 | 71 | 1005.2 |
| 20260506211803 | 43 | 219 | 1.0 | 4.0 | 0.15 | 0.52 | 0.43 | 70 | 1005.2 |
| 20260506210903 | 43 | 233 | 0.0 | 3.0 | 0.14 | 0.49 | 0.40 | 71 | 1005.2 |
| 20260506210003 | 41 | 212 | 1.0 | 6.0 | 0.13 | 0.46 | 0.37 | 76 | 1005.1 |
| 20260506205403 | 40 | 216 | 1.0 | 6.0 | 0.12 | 0.44 | 0.35 | 76 | 1004.8 |
| 20260506204503 | 41 | 222 | 1.0 | 6.0 | 0.13 | 0.43 | 0.34 | 75 | 1005.0 |
| 20260506203603 | 41 | 170 | 0.0 | 2.0 | 0.13 | 0.41 | 0.32 | 77 | 1005.2 |
| 20260506202704 | 40 | 280 | 0.0 | 2.0 | 0.14 | 0.39 | 0.30 | 79 | 1004.9 |
| 20260506201803 | 40 | 320 | 0.0 | 3.0 | 0.15 | 0.37 | 0.28 | 79 | 1004.9 |
| 20260506200903 | 40 | 320 | 0.0 | 5.0 | 0.16 | 0.35 | 0.26 | 81 | 1004.7 |
| 20260506200003 | 39 | 17 | 0.0 | 2.0 | 0.15 | 0.33 | 0.24 | 85 | 1004.7 |
| 20260506195403 | 39 | 292 | 1.0 | 4.0 | 0.15 | 0.32 | 0.23 | 85 | 1004.8 |
| 20260506194503 | 39 | 302 | 1.0 | 4.0 | 0.14 | 0.30 | 0.21 | 85 | 1004.6 |
| 20260506193603 | 39 | 279 | 1.0 | 4.0 | 0.13 | 0.28 | 0.19 | 85 | 1004.6 |